Warroad, MN

1:22 AM CST on February 26, 2017 (GMT -0600)
Warroad International-Carlson

Weather History for KRRT - September, 2012

Change the Weather History Date:

Thursday, September 20, 2012

  Actual Average Record
Temperature  
Mean Temperature 50 °F -  
Max Temperature 60 °F 62 °F 84 °F (1970)
Min Temperature 39 °F 42 °F 24 °F (1973)
Degree Days  
Heating Degree Days 16    
Moisture  
Dew Point 40 °F    
Average Humidity 74    
Maximum Humidity 87    
Minimum Humidity 42    
Precipitation  
Precipitation 0.00 in - - ()
Sea Level Pressure  
Sea Level Pressure 29.83 in    
Wind  
Wind Speed 9 mph (West)    
Max Wind Speed 22 mph    
Max Gust Speed 30 mph    
Visibility 10 miles    
Events Rain    
Averages and records for this station are not official NWS values.
T = Trace of Precipitation, MM = Missing Value Source: NWS Daily Summary

Daily Weather History Graph

Daily Weather History Graph

Search for Another Location

Airport or City:

Trip Planner

Search our weather history database for the weather conditions in past years. The results will help you decide how hot, cold, wet, or windy it might be!

Date:

Astronomy

Sep. 20, 2012 Rise Set
Actual Time 7:05 AM CDT 7:22 PM CDT
Civil Twilight 6:34 AM CDT 7:53 PM CDT
Nautical Twilight 5:56 AM CDT 8:31 PM CDT
Astronomical Twilight 5:18 AM CDT 9:09 PM CDT
Moon 12:55 PM CDT (9/20) 9:54 PM CDT (9/20)
Length of Visible Light 13h 19m
Length of Day
12h 16m
Waxing Crescent, 27% of the Moon is Illuminated
Sep 20
Waxing Crescent
Sep 22
First Quarter
Sep 29
Full
Oct 8
Last Quarter
Oct 15
New

Hourly Weather History & Observations

Time (CDT) Temp. Windchill Dew Point Humidity Pressure Visibility Wind Dir Wind Speed Gust Speed Precip Events Conditions
12:14 AM 48.2 °F - 42.8 °F 82% 29.78 in 10.0 mi WNW 13.8 mph 19.6 mph N/A   Scattered Clouds
12:34 AM 48.2 °F - 42.8 °F 82% 29.78 in 10.0 mi WNW 12.7 mph 19.6 mph N/A   Scattered Clouds
12:54 AM 48.2 °F - 42.8 °F 82% 29.79 in 10.0 mi WNW 10.4 mph - N/A   Mostly Cloudy
1:14 AM 46.4 °F 41.5 °F 42.8 °F 87% 29.79 in 10.0 mi WNW 10.4 mph - N/A   Mostly Cloudy
1:34 AM 46.4 °F 40.7 °F 42.8 °F 87% 29.79 in 10.0 mi WNW 12.7 mph 17.3 mph N/A   Scattered Clouds
1:54 AM 46.4 °F 41.5 °F 42.8 °F 87% 29.79 in 10.0 mi WNW 10.4 mph - N/A   Clear
2:14 AM 46.4 °F 41.1 °F 41.0 °F 81% 29.79 in 10.0 mi WNW 11.5 mph - N/A   Clear
2:34 AM 46.4 °F 41.5 °F 41.0 °F 81% 29.79 in 10.0 mi WNW 10.4 mph - N/A   Clear
2:54 AM 46.4 °F 41.1 °F 41.0 °F 81% 29.79 in 10.0 mi WNW 11.5 mph 16.1 mph N/A   Clear
3:14 AM 46.4 °F 41.5 °F 41.0 °F 81% 29.80 in 10.0 mi WNW 10.4 mph - N/A   Clear
3:34 AM 46.4 °F 41.5 °F 41.0 °F 81% 29.80 in 10.0 mi West 10.4 mph - N/A   Clear
3:54 AM 44.6 °F 40.2 °F 41.0 °F 87% 29.80 in 10.0 mi West 8.1 mph - N/A   Clear
4:14 AM 44.6 °F 39.7 °F 41.0 °F 87% 29.81 in 10.0 mi West 9.2 mph - N/A   Clear
4:34 AM 44.6 °F 39.7 °F 41.0 °F 87% 29.82 in 10.0 mi West 9.2 mph - N/A   Clear
5:14 AM 44.6 °F 40.7 °F 41.0 °F 87% 29.83 in 10.0 mi West 6.9 mph - N/A   Mostly Cloudy
5:34 AM 44.6 °F 41.4 °F 39.2 °F 81% 29.83 in 10.0 mi West 5.8 mph - N/A   Overcast
5:54 AM 44.6 °F 40.7 °F 39.2 °F 81% 29.84 in 10.0 mi West 6.9 mph - N/A   Scattered Clouds
6:14 AM 44.6 °F 42.2 °F 39.2 °F 81% 29.85 in 10.0 mi West 4.6 mph - N/A   Scattered Clouds
6:34 AM 44.6 °F 41.4 °F 39.2 °F 81% 29.85 in 10.0 mi West 5.8 mph - N/A   Scattered Clouds
6:54 AM 42.8 °F 39.3 °F 39.2 °F 87% 29.86 in 10.0 mi WSW 5.8 mph - N/A   Scattered Clouds
7:14 AM 42.8 °F 38.6 °F 37.4 °F 81% 29.86 in 10.0 mi WSW 6.9 mph - N/A   Clear
7:34 AM 42.8 °F 40.1 °F 37.4 °F 81% 29.86 in 10.0 mi West 4.6 mph - N/A   Clear
7:54 AM 42.8 °F 39.3 °F 37.4 °F 81% 29.86 in 10.0 mi West 5.8 mph - N/A   Clear
8:14 AM 42.8 °F 38.6 °F 39.2 °F 87% 29.86 in 10.0 mi West 6.9 mph - N/A   Scattered Clouds
8:34 AM 42.8 °F 38.6 °F 39.2 °F 87% 29.86 in 10.0 mi West 6.9 mph - N/A   Clear
8:54 AM 44.6 °F 40.2 °F 39.2 °F 81% 29.86 in 10.0 mi West 8.1 mph - N/A   Clear
9:14 AM 46.4 °F 41.5 °F 39.2 °F 76% 29.87 in 10.0 mi West 10.4 mph - N/A   Clear
9:34 AM 46.4 °F 42.4 °F 39.2 °F 76% 29.86 in 10.0 mi West 8.1 mph - N/A   Clear
9:54 AM 48.2 °F - 41.0 °F 76% 29.86 in 10.0 mi West 8.1 mph - N/A   Clear
10:14 AM 50.0 °F - 41.0 °F 71% 29.86 in 10.0 mi WNW 8.1 mph - N/A   Clear
10:54 AM 53.6 °F - 42.8 °F 67% 29.86 in 10.0 mi WSW 11.5 mph - N/A   Clear
11:14 AM 55.4 °F - 41.0 °F 58% 29.85 in 10.0 mi West 8.1 mph - N/A   Clear
11:34 AM 55.4 °F - 41.0 °F 58% 29.85 in 10.0 mi West 10.4 mph - N/A   Clear
11:54 AM 55.4 °F - 39.2 °F 54% 29.85 in 10.0 mi WNW 9.2 mph - N/A   Scattered Clouds
12:14 PM 57.2 °F - 37.4 °F 48% 29.85 in 10.0 mi WNW 16.1 mph 23.0 mph N/A   Clear
12:34 PM 55.4 °F - 39.2 °F 54% 29.84 in 10.0 mi West 9.2 mph 17.3 mph N/A   Scattered Clouds
12:54 PM 55.4 °F - 39.2 °F 54% 29.84 in 10.0 mi WNW 11.5 mph 16.1 mph N/A Rain Light Rain
1:14 PM 57.2 °F - 39.2 °F 51% 29.83 in 10.0 mi WNW 12.7 mph - N/A   Mostly Cloudy
1:34 PM 57.2 °F - 39.2 °F 51% 29.82 in 10.0 mi West 10.4 mph - N/A   Scattered Clouds
1:54 PM 60.8 °F - 37.4 °F 42% 29.82 in 10.0 mi West 13.8 mph 20.7 mph N/A   Scattered Clouds
2:14 PM 59.0 °F - 35.6 °F 42% 29.81 in 10.0 mi West 11.5 mph 19.6 mph N/A   Scattered Clouds
2:34 PM 59.0 °F - 35.6 °F 42% 29.80 in 10.0 mi West 13.8 mph 19.6 mph N/A   Scattered Clouds
2:54 PM 57.2 °F - 35.6 °F 44% 29.80 in 10.0 mi West 12.7 mph 24.2 mph N/A   Mostly Cloudy
3:14 PM 57.2 °F - 35.6 °F 44% 29.80 in 10.0 mi West 16.1 mph 20.7 mph N/A   Scattered Clouds
3:34 PM 57.2 °F - 35.6 °F 44% 29.80 in 10.0 mi West 13.8 mph 24.2 mph N/A   Clear
3:54 PM 53.6 °F - 39.2 °F 58% 29.82 in 10.0 mi West 21.9 mph 29.9 mph N/A   Clear
4:14 PM 51.8 °F - 41.0 °F 67% 29.81 in 10.0 mi West 4.6 mph - N/A Rain Light Rain
4:34 PM 51.8 °F - 42.8 °F 71% 29.80 in 10.0 mi SW 4.6 mph - N/A   Scattered Clouds
4:54 PM 53.6 °F - 42.8 °F 67% 29.79 in 10.0 mi SW 6.9 mph - N/A   Scattered Clouds
5:14 PM 55.4 °F - 39.2 °F 54% 29.79 in 10.0 mi SW 6.9 mph - N/A   Scattered Clouds
5:34 PM 55.4 °F - 41.0 °F 58% 29.80 in 10.0 mi NW 5.8 mph - N/A   Scattered Clouds
5:54 PM 48.2 °F - 42.8 °F 82% 29.82 in 10.0 mi North 11.5 mph 19.6 mph N/A Rain Light Rain
6:14 PM 48.2 °F - 44.6 °F 87% 29.82 in 10.0 mi NNW 3.5 mph - N/A   Mostly Cloudy
6:34 PM 48.2 °F - 42.8 °F 82% 29.82 in 10.0 mi Calm Calm - N/A   Scattered Clouds
6:54 PM 48.2 °F - 42.8 °F 82% 29.82 in 10.0 mi Calm Calm - N/A   Scattered Clouds
7:13 PM 48.2 °F - 44.6 °F 87% 29.83 in 10.0 mi WNW 3.5 mph - N/A   Scattered Clouds
7:34 PM 48.2 °F - 44.6 °F 87% 29.83 in 10.0 mi Calm Calm - N/A Rain Rain
7:53 PM 48.2 °F - 44.6 °F 87% 29.84 in 10.0 mi NW 3.5 mph - N/A   Overcast
8:14 PM 48.2 °F - 44.6 °F 87% 29.84 in 10.0 mi WNW 3.5 mph - N/A   Overcast
8:34 PM 48.2 °F - 42.8 °F 82% 29.84 in 10.0 mi North 9.2 mph - N/A Rain Light Rain
8:54 PM 46.4 °F 45.2 °F 42.8 °F 87% 29.83 in 10.0 mi NNW 3.5 mph - N/A   Mostly Cloudy
9:14 PM 44.6 °F 43.1 °F 41.0 °F 87% 29.83 in 10.0 mi NW 3.5 mph - N/A   Overcast
9:33 PM 44.6 °F 43.1 °F 41.0 °F 87% 29.83 in 10.0 mi NW 3.5 mph - N/A   Scattered Clouds
9:54 PM 44.6 °F 43.1 °F 39.2 °F 81% 29.83 in 10.0 mi WNW 3.5 mph - N/A   Mostly Cloudy
10:14 PM 44.6 °F 42.2 °F 39.2 °F 81% 29.83 in 10.0 mi West 4.6 mph - N/A   Mostly Cloudy
10:33 PM 42.8 °F 40.1 °F 39.2 °F 87% 29.83 in 10.0 mi West 4.6 mph - N/A   Clear
10:54 PM 42.8 °F 41.1 °F 37.4 °F 81% 29.83 in 10.0 mi West 3.5 mph - N/A   Clear
11:14 PM 41.0 °F 38.0 °F 37.4 °F 87% 29.83 in 10.0 mi West 4.6 mph - N/A   Clear
11:34 PM 39.2 °F - 35.6 °F 87% 29.83 in 10.0 mi Calm Calm - N/A   Clear
11:54 PM 39.2 °F - 35.6 °F 87% 29.83 in 10.0 mi Calm Calm - N/A   Clear